Find Starlink 30972

NORAD ID: 58721 Int'l Des: 2024-002 Owner: SPXS Country: US Constellation: starlink operational
LEOCIRCULAR

現在のビュー

3D地球を読み込み中...

About Starlink 30972

Starlink 30972 (NORAD 58721) is a starlink constellation satellite (v2 mini) launched Jan 3, 2024 by SPXS of US. It operates in LEO, CIRCULAR orbit with a mass of 730.00 kg.

次回通過

Passes for default location (London). Set your location on the main map for personalized predictions.

高度履歴

Loading altitude history...

軌道要素

1 58721U 24002S 26263.56528466 -.00003201 00000-0 -83699-4 0 9999
2 58721 53.1591 43.2016 0000739 48.3835 311.7230 15.34384573151877
Epoch: Sep 20, 2026 • Age: 18 hours

現在のステータス

高度 466.6 km
遠地点 / 近地点 N/A
速度 7.64 km/s
衛星直下点 41.71°N, 68.44°E
打ち上げ日 Jan 3, 2024
運用期間 2.7 years
タイプ internet

技術仕様

分類 Payload
質量 730.00 kg
乾燥質量 700.00 kg
長さ 0.30 m
スパン 29.00 m
形状 ? Box + pan
製造者 SPXS
バスタイプ Starlink V2M
フェーズステータス In Orbit
所有者/国 SPXS/US

Most Searched